| time (UTC) | temp C | wind direction | speed KPH | gust KPH | rain 1hr cm | rain 24hr cm | rain mn cm | humidity % | barometer mb |
| 20260904164538 | 29 | 234 | 0.0 | 0.0 | 0.00 | 0.03 | 0.00 | 69 | 1009.2 |
| 20260904163033 | 28 | 234 | 0.0 | 6.4 | 0.00 | 0.03 | 0.00 | 70 | 1009.3 |
| 20260904161535 | 28 | 233 | 0.0 | 6.4 | 0.00 | 0.03 | 0.00 | 70 | 1009.4 |
| 20260904160028 | 28 | 239 | 0.0 | 8.0 | 0.00 | 0.03 | 0.00 | 70 | 1009.3 |
| 20260904154527 | 27 | 241 | 0.0 | 11.3 | 0.00 | 0.03 | 0.00 | 69 | 1009.2 |
| 20260904153025 | 27 | 240 | 3.2 | 9.7 | 0.00 | 0.03 | 0.00 | 69 | 1009.2 |
| 20260904151522 | 27 | 217 | 0.0 | 9.7 | 0.00 | 0.03 | 0.00 | 66 | 1009.2 |
| 20260904150021 | 26 | 218 | 0.0 | 11.3 | 0.00 | 0.03 | 0.00 | 66 | 1009.4 |
| 20260904144516 | 26 | 227 | 0.0 | 9.7 | 0.00 | 0.10 | 0.00 | 62 | 1009.3 |
| 20260904143013 | 25 | 151 | 0.0 | 11.3 | 0.00 | 0.10 | 0.00 | 58 | 1009.4 |
| 20260904141510 | 25 | 209 | 1.6 | 9.7 | 0.00 | 0.10 | 0.00 | 53 | 1009.3 |
| 20260904140011 | 25 | 173 | 0.0 | 4.8 | 0.00 | 0.10 | 0.00 | 51 | 1009.2 |
| 20260904134506 | 24 | 187 | 0.0 | 4.8 | 0.00 | 0.10 | 0.00 | 41 | 1009.2 |
| 20260904133005 | 23 | 172 | 0.0 | 6.4 | 0.00 | 0.10 | 0.00 | 14 | 1008.9 |
| 20260904131503 | -17 | 110 | 0.0 | 3.2 | 0.00 | 0.10 | 0.00 | 1008.9 | |
| 20260904130059 | -17 | 106 | 0.0 | 0.0 | 0.00 | 0.10 | 0.00 | 1009.0 | |
| 20260904124555 | -17 | 118 | 0.0 | 0.0 | 0.00 | 0.10 | 0.00 | 1008.9 | |
| 20260904123051 | -17 | 198 | 0.0 | 0.0 | 0.00 | 0.10 | 0.00 | 1008.9 | |
| 20260904121547 | -17 | 198 | 0.0 | 6.4 | 0.00 | 0.10 | 0.00 | 1008.8 | |
| 20260904120049 | -17 | 203 | 0.0 | 6.4 | 0.00 | 0.10 | 0.00 | 1008.7 | |
| 20260904114537 | -17 | 204 | 0.0 | 11.3 | 0.00 | 0.10 | 0.00 | 1008.5 | |
| 20260904113034 | -17 | 188 | 1.6 | 9.7 | 0.00 | 0.10 | 0.00 | 1008.5 | |
| 20260904111537 | -17 | 186 | 0.0 | 3.2 | 0.00 | 0.10 | 0.00 | 1008.4 | |
| 20260904110024 | -17 | 186 | 0.0 | 3.2 | 0.00 | 0.10 | 0.00 | 1008.5 | |
| 20260904104520 | -17 | 213 | 0.0 | 6.4 | 0.00 | 0.10 | 0.00 | 1008.4 | |
| 20260904103015 | 22 | 261 | 0.0 | 1.6 | 0.00 | 0.10 | 0.00 | 21 | 1008.3 |
| 20260904101513 | 22 | 295 | 0.0 | 1.6 | 0.00 | 0.10 | 0.00 | 21 | 1008.2 |
| 20260904100010 | 23 | 123 | 0.0 | 6.4 | 0.00 | 0.10 | 0.00 | 26 | 1008.2 |
| 20260904094509 | 23 | 45 | 0.0 | 3.2 | 0.00 | 0.15 | 0.00 | 31 | 1008.2 |
| 20260904093008 | 23 | 231 | 0.0 | 0.0 | 0.00 | 0.15 | 0.00 | 36 | 1008.1 |
| 20260904091507 | 23 | 231 | 0.0 | 0.0 | 0.00 | 0.15 | 0.00 | 41 | 1008.1 |
| 20260904090006 | 23 | 261 | 0.0 | 1.6 | 0.00 | 0.15 | 0.00 | 42 | 1008.1 |
| 20260904084505 | 23 | 117 | 0.0 | 9.7 | 0.00 | 0.30 | 0.00 | 36 | 1008.1 |
| 20260904083005 | 23 | 82 | 0.0 | 0.0 | 0.00 | 0.30 | 0.00 | 29 | 1008.1 |
| 20260904081506 | 23 | 38 | 0.0 | 0.0 | 0.00 | 0.30 | 0.00 | 22 | 1008.2 |
| 20260904080004 | 23 | 40 | 0.0 | 0.0 | 0.00 | 0.30 | 0.00 | 18 | 1008.1 |
| 20260904074507 | 23 | 128 | 0.0 | 0.0 | 0.00 | 0.30 | 0.00 | 17 | 1008.2 |
| 20260904073003 | 23 | 124 | 0.0 | 8.0 | 0.00 | 0.30 | 0.00 | 19 | 1008.2 |
| 20260904071559 | 23 | 133 | 0.0 | 0.0 | 0.00 | 0.30 | 0.00 | 24 | 1008.3 |
| 20260904070115 | 23 | 133 | 0.0 | 0.0 | 0.00 | 0.30 | 0.00 | 31 | 1008.3 |
| 20260904064553 | 23 | 333 | 0.0 | 0.0 | 0.00 | 0.30 | 0.00 | 36 | 1008.4 |
| 20260904063100 | 24 | 325 | 0.0 | 6.4 | 0.00 | 0.30 | 0.00 | 39 | 1008.5 |
| 20260904061549 | 24 | 69 | 0.0 | 8.0 | 0.00 | 0.30 | 0.00 | 43 | 1008.4 |
| 20260904060047 | 24 | 139 | 1.6 | 8.0 | 0.00 | 0.30 | 0.00 | 46 | 1008.4 |
| 20260904054547 | 24 | 63 | 0.0 | 0.0 | 0.00 | 0.30 | 0.00 | 44 | 1008.3 |
| 20260904053044 | 25 | 37 | 0.0 | 8.0 | 0.00 | 0.30 | 0.00 | 48 | 1008.3 |
| 20260904051543 | 25 | 340 | 0.0 | 0.0 | 0.00 | 0.30 | 0.00 | 45 | 1008.1 |
| 20260904050041 | 25 | 24 | 0.0 | 9.7 | 0.00 | 0.30 | 0.00 | 45 | 1008.1 |
| 20260904044536 | 25 | 40 | 0.0 | 0.0 | 0.00 | 0.30 | 0.30 | 44 | 1008.2 |
| 20260904043032 | 25 | 30 | 0.0 | 8.0 | 0.00 | 0.30 | 0.30 | 39 | 1008.1 |
| 20260904041533 | 25 | 32 | 0.0 | 0.0 | 0.00 | 0.30 | 0.30 | 29 | 1008.2 |
| 20260904040024 | 25 | 348 | 0.0 | 0.0 | 0.00 | 0.30 | 0.30 | 28 | 1008.1 |
| 20260904034518 | 25 | 23 | 0.0 | 0.0 | 0.00 | 0.30 | 0.30 | 23 | 1008.1 |
| 20260904033014 | 25 | 30 | 0.0 | 0.0 | 0.00 | 0.30 | 0.30 | 16 | 1008.2 |
| 20260904031509 | 25 | 37 | 0.0 | 0.0 | 0.00 | 0.30 | 0.30 | 9 | 1008.2 |
| 20260904030005 | 25 | 37 | 0.0 | 0.0 | 0.00 | 0.30 | 0.30 | 12 | 1008.1 |
| 20260904024601 | 25 | 360 | 0.0 | 3.2 | 0.00 | 0.30 | 0.30 | 8 | 1008.0 |
| 20260904023056 | 25 | 237 | 0.0 | 0.0 | 0.00 | 0.30 | 0.30 | 100 | 1007.9 |
| 20260904021552 | 25 | 115 | 0.0 | 0.0 | 0.00 | 0.30 | 0.30 | 100 | 1007.8 |
| 20260904020050 | 25 | 102 | 0.0 | 0.0 | 0.00 | 0.30 | 0.30 | 100 | 1007.8 |
| 20260904014609 | 25 | 106 | 0.0 | 0.0 | 0.00 | 0.30 | 0.30 | 100 | 1007.7 |
| 20260904013041 | 25 | 105 | 0.0 | 0.0 | 0.00 | 0.30 | 0.30 | 100 | 1007.5 |
| 20260904011534 | 25 | 105 | 0.0 | 0.0 | 0.00 | 0.30 | 0.30 | 100 | 1007.2 |
| 20260904010029 | 26 | 107 | 0.0 | 0.0 | 0.00 | 0.30 | 0.30 | 15 | 1007.1 |
| 20260904004524 | 26 | 139 | 0.0 | 0.0 | 0.00 | 0.30 | 0.30 | 31 | 1007.1 |
| 20260904003019 | 26 | 139 | 0.0 | 0.0 | 0.00 | 0.30 | 0.30 | 43 | 1007.0 |
| 20260904001517 | 27 | 139 | 0.0 | 1.6 | 0.00 | 0.30 | 0.30 | 54 | 1006.9 |
| 20260904000013 | 27 | 138 | 0.0 | 0.0 | 0.00 | 0.30 | 0.30 | 59 | 1006.7 |
| 20260903234506 | 28 | 229 | 0.0 | 3.2 | 0.00 | 0.30 | 0.30 | 63 | 1006.5 |
| 20260903233001 | 28 | 129 | 0.0 | 0.0 | 0.00 | 0.30 | 0.30 | 67 | 1006.5 |
| 20260903231557 | 28 | 135 | 0.0 | 11.3 | 0.00 | 0.30 | 0.30 | 69 | 1006.5 |
| 20260903230055 | 28 | 146 | 0.0 | 11.3 | 0.00 | 0.30 | 0.30 | 69 | 1006.3 |
| 20260903224552 | 29 | 298 | 0.0 | 14.5 | 0.00 | 0.30 | 0.30 | 69 | 1006.1 |
| 20260903223111 | 29 | 256 | 0.0 | 14.5 | 0.00 | 0.30 | 0.30 | 69 | 1006.0 |
| 20260903221551 | 28 | 86 | 0.0 | 14.5 | 0.00 | 0.30 | 0.30 | 69 | 1006.1 |
| 20260903220115 | 29 | 277 | 0.0 | 14.5 | 0.00 | 0.30 | 0.30 | 68 | 1006.1 |
| 20260903214544 | 29 | 242 | 1.6 | 14.5 | 0.00 | 0.30 | 0.30 | 67 | 1005.8 |
| 20260903213039 | 29 | 249 | 0.0 | 14.5 | 0.00 | 0.30 | 0.30 | 67 | 1005.9 |
| 20260903211535 | 29 | 163 | 0.0 | 22.5 | 0.00 | 0.30 | 0.30 | 67 | 1006.2 |
| 20260903210031 | 29 | 48 | 1.6 | 19.3 | 0.00 | 0.30 | 0.30 | 68 | 1006.2 |
| 20260903204531 | 28 | 111 | 0.0 | 12.9 | 0.00 | 0.30 | 0.30 | 67 | 1006.4 |
| 20260903203021 | 28 | 349 | 1.6 | 19.3 | 0.00 | 0.30 | 0.30 | 68 | 1006.4 |
| 20260903201517 | 28 | 111 | 0.0 | 19.3 | 0.00 | 0.30 | 0.30 | 69 | 1006.5 |
| 20260903200013 | 27 | 163 | 0.0 | 8.0 | 0.00 | 0.30 | 0.30 | 69 | 1006.7 |
| 20260903194508 | 26 | 117 | 0.0 | 11.3 | 0.00 | 0.30 | 0.30 | 68 | 1006.9 |
| 20260903193004 | 26 | 17 | 0.0 | 17.7 | 0.00 | 0.30 | 0.30 | 65 | 1007.2 |
| 20260903191600 | 25 | 180 | 1.6 | 17.7 | 0.00 | 0.30 | 0.30 | 54 | 1007.5 |
| 20260903190054 | 23 | 342 | 0.0 | 9.7 | 0.00 | 0.30 | 0.30 | 29 | 1007.7 |
| 20260903184550 | 23 | 25 | 0.0 | 9.7 | 0.00 | 0.30 | 0.30 | 26 | 1008.0 |
| 20260903183047 | 23 | 325 | 0.0 | 1.6 | 0.00 | 0.30 | 0.30 | 27 | 1008.3 |
| 20260903181541 | 23 | 112 | 0.0 | 11.3 | 0.00 | 0.30 | 0.30 | 36 | 1008.8 |
| 20260903180045 | 23 | 224 | 0.0 | 6.4 | 0.00 | 0.30 | 0.30 | 45 | 1008.4 |
| 20260903174535 | 23 | 355 | 0.0 | 0.0 | 0.00 | 0.30 | 0.30 | 46 | 1008.7 |
| 20260903173027 | 22 | 241 | 0.0 | 0.0 | 0.00 | 0.30 | 0.30 | 39 | 1009.0 |
| 20260903171529 | 22 | 240 | 0.0 | 0.0 | 0.00 | 0.30 | 0.30 | 31 | 1008.9 |
| 20260903170033 | 22 | 9 | 0.0 | 8.0 | 0.03 | 0.30 | 0.30 | 16 | 1009.1 |